Weather History for Asheville, NC

Change the Weather History Date:

Tuesday, March 6, 2007

  Actual Average Record
Temperature  
Mean Temperature 47 °F 45 °F  
Max Temperature 58 °F 56 °F 78 °F (1960)
Min Temperature 36 °F 33 °F 5 °F (1966)
Degree Days  
Heating Degree Days 18 20  
Month to date heating degree days 128 126  
Since 1 July heating degree days 3324 3343  
Cooling Degree Days 0 0  
Month to date cooling degree days 0 0  
Year to date cooling degree days 0 0  
Moisture  
Dew Point 21 °F    
Average Humidity 39    
Maximum Humidity 59    
Minimum Humidity 19    
Precipitation  
Precipitation 0.00 in 0.13 in 2.14 in (2011)
Month to date precipitation 2.40 0.73  
Year to date precipitation 7.20 8.16  
Snow  
Snow 0.00 in 0.10 in 6.00 in (1969)
Month to date snowfall T 0.4  
Since 1 July snowfall 1.9 7.7  
Snow Depth -    
Sea Level Pressure  
Sea Level Pressure 30.27 in    
Wind  
Wind Speed 11 mph (NNW)    
Max Wind Speed 31 mph    
Max Gust Speed 37 mph    
Visibility 10 miles    
Events      
T = Trace of Precipitation, MM = Missing Value Source: NWS Daily Summary

Daily Weather History Graph

Daily Weather History Graph

Search for Another Location

Airport:

Trip Planner

Search our weather history database for the weather conditions in past years. The results will help you decide how hot, cold, wet, or windy it might be!

Date:

Astronomy

Mar. 06, 2007 Rise Set
Actual Time 6:53 AM EST 6:29 PM EST
Civil Twilight 6:28 AM EST 6:55 PM EST
Nautical Twilight 5:58 AM EST 7:24 PM EST
Astronomical Twilight 5:29 AM EST 7:54 PM EST
Moon 9:12 PM EST (3/6) 7:58 AM EST (3/6)
Length of Visible Light 12h 26m
Length of Day
11h 36m
Waning Gibbous, 93% of the Moon is Illuminated
Mar 6
Waning Gibbous
Mar 11
Last Quarter
Mar 18
New
Mar 25
First Quarter
Apr 2
Full

Hourly Weather History & Observations

Time (EST) Temp. Windchill Dew Point Humidity Pressure Visibility Wind Dir Wind Speed Gust Speed Precip Events Conditions
12:54 AM 46.0 °F 39.3 °F 21.9 °F 39% 30.17 in 10.0 mi NNW 16.1 mph - N/A   Clear
1:54 AM 46.0 °F 38.5 °F 24.1 °F 42% 30.17 in 10.0 mi NW 19.6 mph 29.9 mph N/A   Clear
2:54 AM 46.0 °F 37.6 °F 25.0 °F 44% 30.15 in 10.0 mi NNW 24.2 mph 36.8 mph N/A   Clear
3:54 AM 44.1 °F 38.1 °F 25.0 °F 47% 30.17 in 10.0 mi North 11.5 mph 19.6 mph N/A   Clear
4:54 AM 42.1 °F 35.2 °F 25.0 °F 51% 30.19 in 10.0 mi North 12.7 mph 23.0 mph N/A   Clear
5:54 AM 41.0 °F 33.9 °F 26.1 °F 55% 30.22 in 10.0 mi NNW 12.7 mph 23.0 mph N/A   Clear
6:54 AM 39.9 °F 32.1 °F 26.1 °F 58% 30.26 in 10.0 mi North 13.8 mph - N/A   Clear
7:54 AM 39.9 °F 32.5 °F 26.1 °F 58% 30.31 in 10.0 mi North 12.7 mph - N/A   Clear
8:54 AM 42.1 °F 35.7 °F 26.1 °F 53% 30.33 in 10.0 mi North 11.5 mph 20.7 mph N/A   Clear
9:54 AM 45.0 °F 40.6 °F 25.0 °F 46% 30.35 in 10.0 mi North 8.1 mph - N/A   Clear
10:54 AM 48.0 °F - 19.0 °F 32% 30.35 in 10.0 mi North 11.5 mph - N/A   Clear
11:54 AM 50.0 °F - 18.0 °F 28% 30.35 in 10.0 mi North 11.5 mph - N/A   Clear
12:54 PM 54.0 °F - 15.1 °F 22% 30.32 in 10.0 mi North 11.5 mph - N/A   Clear
1:54 PM 55.0 °F - 16.0 °F 22% 30.29 in 10.0 mi NNW 11.5 mph - N/A   Clear
2:54 PM 57.0 °F - 16.0 °F 20% 30.27 in 10.0 mi NNE 9.2 mph - N/A   Clear
3:54 PM 57.9 °F - 15.1 °F 19% 30.25 in 10.0 mi North 15.0 mph - N/A   Clear
4:54 PM 57.9 °F - 15.1 °F 19% 30.27 in 10.0 mi North 6.9 mph - N/A   Clear
5:54 PM 54.0 °F - 16.0 °F 22% 30.27 in 10.0 mi NW 8.1 mph - N/A   Clear
6:54 PM 48.9 °F - 17.1 °F 28% 30.29 in 10.0 mi NNW 9.2 mph - N/A   Clear
7:54 PM 46.0 °F 42.5 °F 17.1 °F 31% 30.31 in 10.0 mi NNW 6.9 mph - N/A   Clear
8:54 PM 44.1 °F 41.5 °F 18.0 °F 35% 30.31 in 10.0 mi North 4.6 mph - N/A   Clear
9:54 PM 42.1 °F 39.2 °F 19.0 °F 40% 30.31 in 10.0 mi NNW 4.6 mph - N/A   Clear
10:54 PM 39.0 °F - 21.9 °F 50% 30.30 in 10.0 mi Calm Calm - N/A   Clear
11:54 PM 37.0 °F 34.5 °F 23.0 °F 57% 30.30 in 10.0 mi West 3.5 mph - N/A   Clear